User: anonymous
Location: Trois-Rivi�res
(46.3500°N, 72.5500°W)
Time: 15:25:31
(UTC-04:00)
Language:

SJ-11-01 - Orbit

View from above orbital plane
View from above orbital plane
View from above satellite
View from above satellite

Ground track
Ground track

The orbit data is extracted from the following two-line orbital elements,

1 36088U 09061A   14106.43177771  .00000810  00000-0  17824-3 0  9231
2 36088 098.0443 156.5751 0009583 276.7938 083.2173 14.59992258235729
Epoch (UTC): 16 April 2014 10:21:45
Eccentricity: 0.0009583
inclination: 98.0443°
perigee height: 686 km
apogee height: 700 km
right ascension of ascending node: 156.5751°
argument of perigee: 276.7938°
revolutions per day: 14.59992258
mean anomaly at epoch: 83.2173°
orbit number at epoch: 23572

The dashed part of the orbit path shows where the satellite is in the earth's shadow,  

DLR